Location: ????
(33.1659°N, 35.6604°E)
Time: 02:43:28
(UTC+00:00)

Cosmos 2366 rocket - Pass Details

Date: 20 September 2019
Orbit: 956 x 996 km, 82.9° (Epoch: 14 October)

Event Time Altitude Azimuth Distance (km) Brightness Sun altitude
Rises 17:57:08 0° 352° (N) 3,720 7.4 -29.3°
Reaches altitude 10° 17:59:40 10° 352° (N) 2,768 6.7 -29.8°
Enters shadow 18:05:58 83° 280° (W) 1,006 4.0 -31.0°
